User: anonymous   Login
Location: Unspecified
(0.0000°N, 0.0000°E)
Time: 00:20:44
(UTC+00:00)
Language:

NNS O-23 - Orbit

View from above orbital plane
View from above orbital plane
View from above satellite
View from above satellite

Ground track
Ground track

The orbit data is extracted from the following two-line orbital elements,

1 19070U 88033A   23274.77803650  .00000148  00000-0  28540-3 0  9998
2 19070  90.3243 351.6398 0187995 253.1040 229.6740 13.27594728716258
Epoch (UTC): 01 October 2023 18:40:22
Eccentricity: 0.0187995
inclination: 90.3243°
perigee height: 1014 km
apogee height: 1297 km
right ascension of ascending node: 351.6398°
argument of perigee: 253.1040°
revolutions per day: 13.27594728
mean anomaly at epoch: 229.6740°
orbit number at epoch: 71625

The dashed part of the orbit path shows where the satellite is in the earth's shadow,  

DLR